| time (UTC) | temp C | wind direction | speed KPH | gust KPH | rain 1hr cm | rain 24hr cm | rain mn cm | humidity % | barometer mb |
| 20260504190617 | 21 | 266 | 16.1 | 19.3 | 0.00 | 0.00 | 0.00 | 41 | 1005.8 |
| 20260504185617 | 21 | 243 | 17.7 | 22.5 | 0.00 | 0.00 | 0.00 | 44 | 1005.7 |
| 20260504184617 | 21 | 262 | 12.9 | 20.9 | 0.00 | 0.00 | 0.00 | 43 | 1006.0 |
| 20260504183617 | 21 | 254 | 16.1 | 19.3 | 0.00 | 0.00 | 0.00 | 44 | 1006.0 |
| 20260504182617 | 21 | 263 | 11.3 | 19.3 | 0.00 | 0.00 | 0.00 | 45 | 1006.1 |
| 20260504181617 | 21 | 251 | 19.3 | 25.7 | 0.00 | 0.03 | 0.00 | 44 | 1005.9 |
| 20260504180618 | 20 | 224 | 14.5 | 19.3 | 0.00 | 0.03 | 0.00 | 44 | 1006.0 |
| 20260504175618 | 21 | 243 | 14.5 | 19.3 | 0.00 | 0.03 | 0.00 | 46 | 1006.1 |
| 20260504174618 | 21 | 252 | 19.3 | 30.6 | 0.00 | 0.03 | 0.00 | 45 | 1006.1 |
| 20260504173638 | 21 | 265 | 14.5 | 19.3 | 0.00 | 0.03 | 0.00 | 46 | 1006.3 |
| 20260504172618 | 20 | 243 | 8.0 | 20.9 | 0.00 | 0.03 | 0.00 | 48 | 1006.3 |
| 20260504171618 | 20 | 266 | 14.5 | 17.7 | 0.00 | 0.03 | 0.00 | 48 | 1006.4 |
| 20260504170616 | 20 | 253 | 11.3 | 19.3 | 0.00 | 0.03 | 0.00 | 48 | 1006.6 |
| 20260504150618 | 16 | 218 | 17.7 | 22.5 | 0.00 | 0.03 | 0.00 | 52 | 1007.3 |
| 20260504140636 | 15 | 225 | 19.3 | 25.7 | 0.00 | 0.03 | 0.00 | 52 | 1007.5 |
| 20260504130617 | 13 | 234 | 17.7 | 27.4 | 0.00 | 0.03 | 0.00 | 55 | 1008.2 |
| 20260504110636 | 8 | 238 | 14.5 | 19.3 | 0.00 | 0.03 | 0.00 | 61 | 1008.5 |
| 20260504081617 | 8 | 223 | 6.4 | 11.3 | 0.00 | 0.03 | 0.00 | 60 | 1008.9 |
| 20260504080617 | 8 | 221 | 6.4 | 9.7 | 0.00 | 0.03 | 0.00 | 60 | 1009.1 |
| 20260504050617 | 10 | 244 | 9.7 | 12.9 | 0.00 | 0.03 | 0.00 | 56 | 1009.3 |
| 20260504045617 | 10 | 242 | 9.7 | 12.9 | 0.00 | 0.03 | 0.00 | 56 | 1009.4 |
| 20260504044657 | 9 | 238 | 9.7 | 12.9 | 0.00 | 0.03 | 0.00 | 56 | 1009.5 |
| 20260504043617 | 9 | 236 | 8.0 | 11.3 | 0.00 | 0.03 | 0.00 | 57 | 1009.6 |
| 20260504042619 | 9 | 238 | 8.0 | 11.3 | 0.00 | 0.03 | 0.00 | 56 | 1009.6 |
| 20260504041617 | 10 | 246 | 6.4 | 9.7 | 0.00 | 0.03 | 0.00 | 56 | 1009.7 |
| 20260504040618 | 10 | 239 | 4.8 | 6.4 | 0.00 | 0.03 | 0.00 | 54 | 1009.7 |
| 20260504035618 | 10 | 247 | 6.4 | 9.7 | 0.00 | 0.03 | 0.03 | 54 | 1009.7 |
| 20260504034639 | 11 | 264 | 4.8 | 6.4 | 0.00 | 0.03 | 0.03 | 53 | 1009.6 |
| 20260504033618 | 11 | 246 | 4.8 | 6.4 | 0.00 | 0.03 | 0.03 | 53 | 1009.6 |
| 20260504032616 | 11 | 268 | 4.8 | 4.8 | 0.00 | 0.03 | 0.03 | 54 | 1009.7 |
| 20260504031616 | 11 | 279 | 4.8 | 4.8 | 0.00 | 0.03 | 0.03 | 52 | 1009.8 |
| 20260504030616 | 11 | 225 | 4.8 | 6.4 | 0.00 | 0.03 | 0.03 | 53 | 1010.0 |
| 20260504025616 | 11 | 251 | 3.2 | 3.2 | 0.00 | 0.03 | 0.03 | 55 | 1010.1 |
| 20260504024616 | 11 | 266 | 3.2 | 4.8 | 0.00 | 0.03 | 0.03 | 54 | 1010.2 |
| 20260504023616 | 11 | 278 | 3.2 | 4.8 | 0.00 | 0.03 | 0.03 | 55 | 1010.2 |
| 20260504022617 | 11 | 269 | 1.6 | 3.2 | 0.00 | 0.03 | 0.03 | 52 | 1010.2 |
| 20260504021617 | 11 | 256 | 6.4 | 9.7 | 0.00 | 0.03 | 0.03 | 52 | 1010.1 |
| 20260504020637 | 12 | 234 | 6.4 | 9.7 | 0.00 | 0.03 | 0.03 | 51 | 1010.1 |
| 20260504015617 | 12 | 247 | 9.7 | 17.7 | 0.00 | 0.03 | 0.03 | 49 | 1010.1 |
| 20260504014617 | 12 | 241 | 11.3 | 17.7 | 0.00 | 0.03 | 0.03 | 48 | 1010.2 |
| 20260504013617 | 12 | 244 | 14.5 | 22.5 | 0.00 | 0.03 | 0.03 | 49 | 1010.1 |
| 20260504012618 | 12 | 261 | 4.8 | 11.3 | 0.00 | 0.03 | 0.03 | 48 | 1010.1 |
| 20260504011638 | 12 | 236 | 6.4 | 11.3 | 0.00 | 0.03 | 0.03 | 49 | 1010.1 |
| 20260504010638 | 12 | 206 | 3.2 | 4.8 | 0.00 | 0.03 | 0.03 | 49 | 1010.1 |
| 20260504005618 | 12 | 78 | 4.8 | 8.0 | 0.00 | 0.03 | 0.03 | 50 | 1010.0 |
| 20260504004639 | 12 | 234 | 9.7 | 16.1 | 0.00 | 0.03 | 0.03 | 49 | 1010.1 |
| 20260504003659 | 12 | 243 | 16.1 | 27.4 | 0.00 | 0.03 | 0.03 | 48 | 1009.9 |
| 20260504002616 | 11 | 244 | 6.4 | 11.3 | 0.00 | 0.03 | 0.03 | 48 | 1009.9 |
| 20260504001616 | 11 | 293 | 3.2 | 4.8 | 0.00 | 0.03 | 0.03 | 58 | 1010.0 |
| 20260504000616 | 11 | 266 | 3.2 | 3.2 | 0.00 | 0.03 | 0.03 | 54 | 1009.6 |
| 20260503235616 | 12 | 307 | 3.2 | 3.2 | 0.00 | 0.03 | 0.03 | 51 | 1009.5 |
| 20260503234617 | 12 | 32 | 1.6 | 4.8 | 0.00 | 0.03 | 0.03 | 51 | 1009.5 |
| 20260503233617 | 12 | 233 | 11.3 | 12.9 | 0.00 | 0.03 | 0.03 | 48 | 1009.5 |
| 20260503232617 | 12 | 246 | 8.0 | 14.5 | 0.00 | 0.03 | 0.03 | 49 | 1009.6 |
| 20260503231617 | 12 | 23 | 4.8 | 11.3 | 0.00 | 0.03 | 0.03 | 48 | 1009.6 |
| 20260503230617 | 12 | 244 | 20.9 | 25.7 | 0.00 | 0.03 | 0.03 | 46 | 1009.3 |
| 20260503225618 | 13 | 263 | 8.0 | 16.1 | 0.00 | 0.03 | 0.03 | 47 | 1009.3 |
| 20260503224617 | 13 | 249 | 8.0 | 16.1 | 0.00 | 0.03 | 0.03 | 46 | 1009.1 |
| 20260503223618 | 13 | 293 | 1.6 | 4.8 | 0.00 | 0.03 | 0.03 | 50 | 1009.1 |
| 20260503222638 | 13 | 261 | 4.8 | 9.7 | 0.00 | 0.03 | 0.03 | 49 | 1009.1 |
| 20260503221617 | 13 | 246 | 12.9 | 16.1 | 0.00 | 0.03 | 0.03 | 48 | 1009.0 |
| 20260503220618 | 13 | 244 | 9.7 | 12.9 | 0.00 | 0.03 | 0.03 | 49 | 1009.3 |
| 20260503215638 | 13 | 264 | 6.4 | 14.5 | 0.00 | 0.03 | 0.03 | 48 | 1009.3 |
| 20260503214616 | 13 | 254 | 9.7 | 12.9 | 0.00 | 0.03 | 0.03 | 49 | 1009.2 |
| 20260503213636 | 13 | 254 | 8.0 | 11.3 | 0.00 | 0.03 | 0.03 | 47 | 1009.2 |
| 20260503212616 | 13 | 223 | 6.4 | 12.9 | 0.00 | 0.03 | 0.03 | 46 | 1009.1 |
| 20260503211616 | 14 | 276 | 8.0 | 17.7 | 0.00 | 0.03 | 0.03 | 47 | 1009.1 |
| 20260503210616 | 14 | 286 | 6.4 | 14.5 | 0.00 | 0.03 | 0.03 | 45 | 1009.1 |
| 20260503205616 | 13 | 292 | 4.8 | 6.4 | 0.00 | 0.03 | 0.03 | 46 | 1009.3 |
| 20260503204637 | 13 | 273 | 6.4 | 11.3 | 0.00 | 0.03 | 0.03 | 46 | 1009.3 |
| 20260503203617 | 13 | 246 | 9.7 | 12.9 | 0.00 | 0.03 | 0.03 | 48 | 1009.5 |
| 20260503202617 | 13 | 241 | 6.4 | 11.3 | 0.00 | 0.03 | 0.03 | 47 | 1009.6 |
| 20260503201617 | 13 | 237 | 16.1 | 20.9 | 0.00 | 0.03 | 0.03 | 47 | 1009.7 |
| 20260503200617 | 13 | 348 | 3.2 | 6.4 | 0.00 | 0.03 | 0.03 | 47 | 1009.8 |
| 20260503195617 | 13 | 239 | 6.4 | 12.9 | 0.00 | 0.03 | 0.03 | 47 | 1009.9 |
| 20260503194617 | 13 | 316 | 3.2 | 8.0 | 0.00 | 0.03 | 0.03 | 47 | 1010.1 |
| 20260503193639 | 12 | 236 | 9.7 | 12.9 | 0.00 | 0.03 | 0.03 | 47 | 1010.3 |
| 20260503192618 | 12 | 274 | 4.8 | 11.3 | 0.00 | 0.03 | 0.03 | 47 | 1010.5 |
| 20260503191618 | 12 | 239 | 12.9 | 14.5 | 0.03 | 0.03 | 0.03 | 50 | 1010.7 |